Weather History for KCPC - January, 2013

Change the Weather History Date:

Monday, January 14, 2013

  Actual Average (KLBT) Record (KLBT)
Temperature  
Mean Temperature 62 °F 43 °F  
Max Temperature 77 °F 53 °F 76 °F (2013)
Min Temperature 46 °F 33 °F 18 °F (2011)
Degree Days  
Heating Degree Days 4 22  
Month to date heating degree days 307  
Since 1 July heating degree days 1357  
Cooling Degree Days 0 0  
Month to date cooling degree days 0  
Year to date cooling degree days 0  
Growing Degree Days 12 (Base 50)    
Moisture  
Dew Point 55 °F    
Average Humidity 84    
Maximum Humidity 100    
Minimum Humidity 51    
Precipitation  
Precipitation 0.00 in 0.08 in 1.02 in (2005)
Month to date precipitation 1.19  
Year to date precipitation 1.19  
Sea Level Pressure  
Sea Level Pressure 30.15 in    
Wind  
Wind Speed 5 mph (SSW)    
Max Wind Speed 16 mph    
Max Gust Speed 16 mph    
Visibility 8 miles    
Events Fog    
T = Trace of Precipitation, MM = Missing Value Source: NWS Daily Summary

Daily Weather History Graph

Daily Weather History Graph

Search for Another Location

Airport or City:

Trip Planner

Search our weather history database for the weather conditions in past years. The results will help you decide how hot, cold, wet, or windy it might be!

Date:

Astronomy

Jan. 14, 2013 Rise Set
Actual Time 7:20 AM EST 5:27 PM EST
Civil Twilight 6:53 AM EST 5:54 PM EST
Nautical Twilight 6:22 AM EST 6:25 PM EST
Astronomical Twilight 5:52 AM EST 6:55 PM EST
Moon 9:03 AM EST (1/14) 8:59 PM EST (1/14)
Length of Visible Light 11h 01m
Length of Day
10h 06m
Waxing Crescent, 11% of the Moon is Illuminated
Jan 14
Waxing Crescent
Jan 18
First Quarter
Jan 26
Full
Feb 3
Last Quarter
Feb 10
New

Hourly Weather History & Observations

Time (EST) Temp. Dew Point Humidity Pressure Visibility Wind Dir Wind Speed Gust Speed Precip Events Conditions
12:15 AM 56.7 °F 55.4 °F 96% 30.14 in 10.0 mi South 4.6 mph - N/A   Clear
12:35 AM 56.5 °F 55.4 °F 96% 30.14 in 10.0 mi South 4.6 mph - N/A   Clear
12:55 AM 56.3 °F 55.0 °F 96% 30.14 in 10.0 mi SSW 3.5 mph - N/A   Clear
1:15 AM 55.0 °F 54.1 °F 97% 30.15 in 7.0 mi SSW 3.5 mph - N/A   Clear
1:35 AM 54.7 °F 54.0 °F 97% 30.15 in 7.0 mi South 4.6 mph - N/A   Clear
1:55 AM 54.9 °F 54.5 °F 99% 30.15 in 10.0 mi South 4.6 mph - N/A   Clear
2:15 AM 55.4 °F 54.9 °F 98% 30.15 in 10.0 mi South 5.8 mph - N/A   Clear
2:35 AM 55.4 °F 54.7 °F 97% 30.16 in 10.0 mi SSW 5.8 mph - N/A   Clear
2:55 AM 55.4 °F 54.7 °F 97% 30.14 in 10.0 mi South 5.8 mph - N/A   Clear
3:15 AM 55.4 °F 54.7 °F 97% 30.14 in 10.0 mi South 5.8 mph - N/A   Clear
3:35 AM 54.9 °F 54.0 °F 97% 30.13 in 10.0 mi South 5.8 mph - N/A   Clear
3:55 AM 54.5 °F 53.8 °F 97% 30.13 in 10.0 mi SSW 5.8 mph - N/A   Clear
4:15 AM 54.5 °F 53.8 °F 97% 30.13 in 7.0 mi SSW 3.5 mph - N/A   Clear
4:35 AM 53.1 °F 52.7 °F 99% 30.13 in 5.0 mi Calm Calm - N/A   Clear
5:15 AM 50.4 °F 49.8 °F 98% 30.13 in 0.2 mi Calm Calm - N/A Fog Fog
5:35 AM 48.4 °F 48.2 °F 99% 30.13 in 0.2 mi Calm Calm - N/A Fog Fog
5:55 AM 47.7 °F 47.5 °F 99% 30.13 in 0.5 mi Calm Calm - N/A Fog Fog
6:15 AM 46.8 °F 46.6 °F 99% 30.14 in 0.5 mi Calm Calm - N/A Fog Fog
6:35 AM 48.4 °F 48.0 °F 99% 30.14 in 0.5 mi Calm Calm - N/A Fog Fog
6:55 AM 48.4 °F 48.4 °F 100% 30.15 in 0.5 mi Calm Calm - N/A Fog Fog
7:15 AM 47.1 °F 46.9 °F 99% 30.15 in 0.2 mi Calm Calm - N/A Fog Fog
7:35 AM 48.7 °F 48.7 °F 100% 30.16 in 0.2 mi Calm Calm - N/A Fog Fog
7:55 AM 48.9 °F 48.9 °F 100% 30.16 in 0.2 mi Calm Calm - N/A Fog Fog
8:15 AM 48.2 °F 48.2 °F 100% 30.17 in 0.2 mi Calm Calm - N/A Fog Fog
8:35 AM 48.9 °F 48.9 °F 100% 30.18 in 0.2 mi South 3.5 mph - N/A Fog Fog
8:55 AM 49.6 °F 49.6 °F 100% 30.19 in 1.2 mi SSW 5.8 mph - N/A   Overcast
9:15 AM 50.9 °F 50.9 °F 100% 30.18 in 10.0 mi South 5.8 mph - N/A   Scattered Clouds
9:35 AM 51.1 °F 51.1 °F 100% 30.18 in 10.0 mi South 6.9 mph - N/A   Clear
9:55 AM 51.4 °F 51.3 °F 99% 30.19 in 10.0 mi SW 5.8 mph - N/A   Scattered Clouds
10:15 AM 50.0 °F 49.8 °F 99% 30.19 in 10.0 mi SSW 5.8 mph - N/A   Clear
10:35 AM 51.4 °F 50.5 °F 97% 30.19 in 10.0 mi SSW 9.2 mph - N/A   Clear
10:55 AM 53.6 °F 48.4 °F 82% 30.18 in 10.0 mi SSW 10.4 mph - N/A   Clear
11:15 AM 54.5 °F 48.0 °F 79% 30.17 in 10.0 mi SSW 10.4 mph - N/A   Clear
11:35 AM 54.9 °F 46.8 °F 74% 30.16 in 10.0 mi SW 10.4 mph - N/A   Clear
11:55 AM 56.1 °F 46.4 °F 70% 30.15 in 10.0 mi SSW 12.7 mph 16.1 mph N/A   Clear
12:15 PM 67.3 °F 54.9 °F 64% 30.14 in 10.0 mi SSW 16.1 mph - N/A   Clear
12:35 PM 68.7 °F 55.0 °F 62% 30.13 in 10.0 mi South 11.5 mph - N/A   Clear
12:55 PM 71.6 °F 55.9 °F 58% 30.13 in 10.0 mi SSW 11.5 mph - N/A   Clear
1:15 PM 74.3 °F 57.9 °F 57% 30.12 in 10.0 mi South 8.1 mph - N/A   Clear
1:35 PM 75.2 °F 58.3 °F 56% 30.11 in 10.0 mi SSW 10.4 mph - N/A   Scattered Clouds
1:55 PM 75.4 °F 57.6 °F 54% 30.11 in 10.0 mi SSW 11.5 mph - N/A   Clear
2:15 PM 75.4 °F 57.6 °F 54% 30.11 in 10.0 mi SSW 8.1 mph - N/A   Scattered Clouds
2:35 PM 76.1 °F 58.1 °F 54% 30.11 in 10.0 mi South 6.9 mph - N/A   Clear
3:15 PM 77.5 °F 57.9 °F 51% 30.12 in 10.0 mi WSW 5.8 mph - N/A   Scattered Clouds
3:35 PM 76.1 °F 57.6 °F 53% 30.12 in 10.0 mi SW 5.8 mph - N/A   Scattered Clouds
3:55 PM 76.8 °F 57.9 °F 52% 30.12 in 10.0 mi SSW 6.9 mph - N/A   Scattered Clouds
4:15 PM 76.6 °F 58.3 °F 53% 30.13 in 10.0 mi SSW 6.9 mph - N/A   Clear
4:35 PM 76.1 °F 58.6 °F 55% 30.13 in 10.0 mi South 5.8 mph - N/A   Clear
5:15 PM 72.1 °F 62.6 °F 72% 30.14 in 10.0 mi SSE 5.8 mph - N/A   Clear
5:35 PM 70.3 °F 62.6 °F 76% 30.15 in 10.0 mi SSE 5.8 mph - N/A   Clear
5:55 PM 68.9 °F 62.1 °F 79% 30.15 in 10.0 mi SSE 4.6 mph - N/A   Clear
6:15 PM 67.5 °F 61.7 °F 82% 30.15 in 10.0 mi SSE 4.6 mph - N/A   Clear
6:35 PM 67.1 °F 61.5 °F 82% 30.15 in 10.0 mi Calm Calm - N/A   Clear
6:55 PM 66.2 °F 61.0 °F 83% 30.16 in 10.0 mi Calm Calm - N/A   Clear
7:15 PM 65.1 °F 60.6 °F 85% 30.15 in 10.0 mi South 4.6 mph - N/A   Clear
7:35 PM 64.4 °F 59.9 °F 85% 30.15 in 10.0 mi South 3.5 mph - N/A   Clear
7:55 PM 64.4 °F 59.4 °F 84% 30.15 in 10.0 mi South 5.8 mph - N/A   Clear
8:15 PM 64.4 °F 59.0 °F 83% 30.16 in 10.0 mi South 5.8 mph - N/A   Clear
8:35 PM 64.4 °F 58.5 °F 81% 30.16 in 10.0 mi SSW 4.6 mph - N/A   Clear
8:55 PM 63.9 °F 58.5 °F 83% 30.16 in 10.0 mi South 4.6 mph - N/A   Clear
9:15 PM 63.7 °F 58.3 °F 83% 30.15 in 10.0 mi South 4.6 mph - N/A   Clear
9:35 PM 63.5 °F 58.3 °F 83% 30.14 in 10.0 mi South 5.8 mph - N/A   Clear
9:55 PM 62.6 °F 58.1 °F 85% 30.14 in 10.0 mi South 4.6 mph - N/A   Clear
10:15 PM 62.6 °F 58.1 °F 85% 30.14 in 10.0 mi South 4.6 mph - N/A   Clear
10:35 PM 62.1 °F 58.1 °F 87% 30.15 in 10.0 mi Calm Calm - N/A   Clear
10:55 PM 61.3 °F 57.7 °F 88% 30.15 in 10.0 mi South 3.5 mph - N/A   Clear
11:15 PM 61.0 °F 57.7 °F 89% 30.15 in 10.0 mi South 3.5 mph - N/A   Clear
11:35 PM 60.6 °F 57.2 °F 88% 30.15 in 10.0 mi SSW 3.5 mph - N/A   Clear
11:55 PM 59.5 °F 57.0 °F 91% 30.16 in 10.0 mi SSW 3.5 mph - N/A   Clear